{"data":{"norad_id":62921,"epoch":"2026-05-25T03:20:32.940960Z","epoch_age_seconds":63682,"freshness":"FRESH","line1":"1 62921U 25027Q   26145.13927015  .00027662  00000+0  10113-2 0  9992","line2":"2 62921  43.0041  57.1754 0001495 258.3009 101.7675 15.27568390 73237","mean_motion":15.2756839,"eccentricity":0.0001495,"inclination_deg":43.0041,"raan_deg":57.1754,"arg_perigee_deg":258.3009,"mean_anomaly_deg":101.7675,"bstar":0.0010113,"rev_number":7323,"period_min":94.267465170577,"perigee_km":482.05810825783,"apogee_km":484.1096132952,"semimajor_km":6861.2208607765,"source":"CELESTRAK","updated_at":"2026-05-25T13:38:19.822134Z"}}